Weather in Daxian

China     31°13′14″N   107°30′00″E
temp.,
°C
wind,
m/s
gust,
m/s
humid.,
%
clouds,
%
prec.,
mm/h
press.,
hPa
HPBL,
m
10 may, mon
mon1023:00+22ne33633 0.0 100226
02:00+20ne3469100 0.0 100149
05:00+19ne2268100 0.0 100130
08:00+22ne1162100 0.0 1002100
11:00+27sw1147100 0.1 1002598
14:00+27sw2251100 0.3 10011042
17:00+28ssw235168 0.0 9991169
20:00+22wnw2180100 2.1 100032
11 may, tue
tue1123:00+21e129090 4.3 100283
02:00+21nw1189100 5.3 100127
05:00+20n119190 0.4 100123
08:00+21wnw1188100 0.4 100331
11:00+23sw1179100 0.4 1005335
14:00+22wnw1184100 2.7 1004114
17:00+19nne2396100 8.2 1005137
20:00+19se1196100 9.7 100617
12 may, wed
wed1223:00+19n119599 0.1 100716
02:00+19ene0094100 0.2 100716
05:00+19s0094100 0.1 100616
08:00+20sse0092100 0.2 100791
11:00+20sw119099 0.3 1007265
14:00+25sw1171100 0.8 1005846
17:00+25s1164100 0.1 10021052
20:00+23sse0177100 0.2 100311
13 may, thu
thu1323:00+21ne128295 0.0 100412
02:00+20ne228899 0.0 100319
05:00+19ene1191100 0.0 100211
08:00+22ne2281100 0.0 1003201
11:00+23sse1178100 0.2 1003377
14:00+26nw1171100 0.3 1000672
17:00+25sw127596 6.8 999241
20:00+22ene118516 11.4 100011
14 may, fri
fri1423:00+21ne228925 0.0 100026
02:00+20ne11921 0.0 99911
05:00+20ne22944 0.0 100021
08:00+21ene118999 0.1 1001126
11:00+22ese1188100 0.0 1001169
14:00+26sse127245 0.0 999695
17:00+27sse226673 0.1 998973
20:00+24nnw018083 2.5 99911